Weather History for KSHR - November, 2011

Change the Weather History Date:

Wednesday, November 2, 2011

  Actual Average Record
Temperature  
Mean Temperature 28 °F 39 °F  
Max Temperature 41 °F 53 °F 77 °F (1965)
Min Temperature 14 °F 25 °F -5 °F (1995)
Degree Days  
Heating Degree Days 37 26  
Month to date heating degree days 70 51  
Since 1 July heating degree days 687 959  
Cooling Degree Days 0 0  
Month to date cooling degree days 0 0  
Year to date cooling degree days 511 419  
Moisture  
Dew Point 18 °F    
Average Humidity 64    
Maximum Humidity 88    
Minimum Humidity 40    
Precipitation  
Precipitation 0.00 in 0.02 in 0.70 in (1987)
Month to date precipitation 0.27 0.05  
Year to date precipitation 17.31 12.94  
Sea Level Pressure  
Sea Level Pressure 30.45 in    
Wind  
Wind Speed 3 mph (South)    
Max Wind Speed 15 mph    
Max Gust Speed 18 mph    
Visibility 10 miles    
Events      
T = Trace of Precipitation, MM = Missing Value Source: NWS Daily Summary

Daily Weather History Graph

Daily Weather History Graph

Search for Another Location

Airport or City:

Trip Planner

Search our weather history database for the weather conditions in past years. The results will help you decide how hot, cold, wet, or windy it might be!

Date:

Astronomy

Nov. 02, 2011 Rise Set
Actual Time 7:46 AM MDT 5:55 PM MDT
Civil Twilight 7:16 AM MDT 6:25 PM MDT
Nautical Twilight 6:41 AM MDT 7:00 PM MDT
Astronomical Twilight 6:07 AM MDT 7:34 PM MDT
Moon 2:07 PM MDT (11/2) No Moon Set
Length of Visible Light 11h 09m
Length of Day
10h 08m
Waxing Crescent, 51% of the Moon is Illuminated
Nov 2
Waxing Crescent
Nov 10
Full
Nov 18
Last Quarter
Nov 24
New
Dec 2
First Quarter

Hourly Weather History & Observations

Time (MDT) Temp. Windchill Dew Point Humidity Pressure Visibility Wind Dir Wind Speed Gust Speed Precip Events Conditions
12:53 AM 28.0 °F 18.6 °F 24.1 °F 85% 30.51 in 10.0 mi WNW 10.4 mph - N/A   Clear
1:53 AM 25.0 °F - 21.0 °F 85% 30.53 in 10.0 mi Calm Calm - N/A   Clear
2:53 AM 23.0 °F 17.0 °F 19.0 °F 85% 30.54 in 10.0 mi SSW 4.6 mph - N/A   Clear
3:53 AM 21.0 °F 13.4 °F 17.1 °F 85% 30.54 in 10.0 mi South 5.8 mph - N/A   Clear
4:53 AM 19.9 °F - 15.1 °F 81% 30.54 in 10.0 mi Calm Calm - N/A   Clear
5:53 AM 18.0 °F - 14.0 °F 84% 30.57 in 10.0 mi Calm Calm - N/A   Clear
6:53 AM 17.1 °F - 12.0 °F 81% 30.56 in 10.0 mi Calm Calm - N/A   Clear
7:53 AM 15.1 °F - 10.9 °F 84% 30.58 in 10.0 mi Calm Calm - N/A   Clear
8:53 AM 19.9 °F - 15.1 °F 81% 30.58 in 10.0 mi Calm Calm - N/A   Clear
9:53 AM 25.0 °F 20.7 °F 19.0 °F 78% 30.55 in 10.0 mi South 3.5 mph - N/A   Clear
10:53 AM 30.2 °F 26.7 °F 19.4 °F 64% 30.40 in 10.0 mi SE 3.5 mph - N/A   Clear
11:53 AM 35.1 °F - 23.0 °F 61% 30.49 in 10.0 mi Calm Calm - N/A   Clear
12:53 PM 37.0 °F 29.8 °F 24.1 °F 59% 30.45 in 10.0 mi SSE 10.4 mph - N/A   Clear
1:53 PM 39.9 °F 32.9 °F 21.0 °F 47% 30.42 in 10.0 mi SE 11.5 mph - N/A   Clear
2:53 PM 39.9 °F 33.9 °F 18.0 °F 41% 30.41 in 10.0 mi SSE 9.2 mph - N/A   Clear
3:53 PM 39.9 °F 34.5 °F 21.0 °F 47% 30.40 in 10.0 mi SE 8.1 mph - N/A   Clear
4:53 PM 36.0 °F 29.6 °F 19.9 °F 52% 30.40 in 10.0 mi SSW 8.1 mph - N/A   Clear
5:53 PM 30.0 °F 24.1 °F 19.9 °F 66% 30.39 in 10.0 mi SSW 5.8 mph - N/A   Clear
6:53 PM 27.0 °F - 18.0 °F 69% 30.38 in 10.0 mi Calm Calm - N/A   Clear
7:53 PM 24.1 °F 17.0 °F 18.0 °F 77% 30.37 in 10.0 mi SSW 5.8 mph - N/A   Clear
8:53 PM 23.0 °F - 18.0 °F 81% 30.35 in 10.0 mi Calm Calm - N/A   Clear
9:53 PM 21.9 °F - 16.0 °F 78% 30.32 in 10.0 mi Calm Calm - N/A   Clear
10:53 PM 21.0 °F - 16.0 °F 81% 30.30 in 10.0 mi Calm Calm - N/A   Clear
11:53 PM 23.0 °F - 16.0 °F 74% 30.25 in 10.0 mi Calm Calm - N/A   Clear